Hourly Data Report for July 16, 2021

SWAN RIVER RCS
MANITOBA
Current Station Operator: ECCC - MSC

52°06'53.900" N
101°13'58.500" W
334.80 m
504K80K
71443
WEQ

Download Data

Hourly Data (July 2021)
Hourly Data Report for July 16, 2021
TIME
LST
Temp Definition
°C
Dew Point Definition
°C
Rel Hum Definition
%
Precip. Amount Definition
mm

Wind Dir Definition
10's deg

Wind Spd Definition
km/h
Visibility Definition
km
Stn Press Definition
kPa
Hmdx Definition


Wind Chill Definition


Weather Definition


00:00 20.6 14.8 69 0.0 30 7   96.76     LegendNANA
01:00 19.2 14.9 76 0.0 28 6   96.76     LegendNANA
02:00 18.9 14.7 76 0.0 27 8   96.77     LegendNANA
03:00 17.8 14.0 78 0.0 23 7   96.74     LegendNANA
04:00 17.4 14.2 82 0.0 25 5   96.71     LegendNANA
05:00 17.5 14.2 81 0.0 24 8   96.72     LegendNANA
06:00 18.6 14.4 77 0.0 25 8   96.76     LegendNANA
07:00 20.4 14.8 70 0.0 25 9   96.79     LegendNANA
08:00 23.1 15.6 63 0.0 24 7   96.80 27   LegendNANA
09:00 24.4 16.1 60 0.0 31 8   96.83 29   LegendNANA
10:00 25.7 15.1 52 0.0 26 6   96.91 30   LegendNANA
11:00 28.3 14.9 44 0.0 17 8   96.95 32   LegendNANA
12:00 29.9 11.9 33 0.0 22 8   96.98 32   LegendNANA
13:00 30.0 12.1 33 0.0 21 8   96.98 32   LegendNANA
14:00 31.5 13.8 34 0.0 27 10   97.02 35   LegendNANA
15:00 31.7 14.3 35 0.0 28 10   97.04 35   LegendNANA
16:00 32.1 13.5 32 0.0 25 6   97.04 35   LegendNANA
17:00 32.1 14.5 35 0.0 28 5   97.08 36   LegendNANA
18:00 27.2 17.5 55 0.0 4 16   97.15 33   LegendNANA
19:00 25.4 17.7 62 0.0 4 17   97.20 31   LegendNANA
20:00 23.8 16.9 65 0.0 5 15   97.30 29   LegendNANA
21:00 22.4 17.0 72 0.0 5 12   97.38 28   LegendNANA
22:00 21.0 16.7 76 0.0 6 7   97.44 26   LegendNANA
23:00 20.7 15.7 73 0.0 8 6   97.49 25   LegendNANA

Notes on Data Quality.

Legend

  • E = Estimated
  • M = Missing
  • NA = Not Available*
  • [empty] = Indicates an unobserved value
Date modified: